Tracking 35331 objects as of 13-Sep-2026
HD Live streaming from Space Station
objects crossing your sky now

FREGAT DEB

Track FREGAT DEB now!
10-day predictions


NORAD ID: 46628
Int'l Code: 2011-037MU
Launch date: July 18, 2011
Source: Commonwealth of Independent States (former USSR) (CIS)
Launch site: TYURATAM MISSILE AND SPACE COMPLEX (TTMTR)

Note: This is SATELLITE DEBRIS
Your satellite tracking list
Your tracking list is empty




NASA's NSSDC Master Catalog

Two Line Element Set (TLE):
1 46628U 11037MU  22220.35173703 -.00030291  00000-0 -42900+0 0  9996
2 46628  51.4483 329.4988 1637563 100.0373 278.8395 10.08475291 66901
Source of the keplerian elements: AFSPC